Weather Roundup
Issued by NWS Springfield, MO

Home | Current Version | Previous Version | Text Only | Print | Product List | Glossary On
Versions: 1 2 3 4 5 6 7 8 9 10 11 12 13 14 15 16 17 18 19 20 21 22 23 24 25 26 27 28 29 30 31 32 33 34 35 36 37 38 39 40 41 42 43 44 45 46 47 48 49 50
000
NZUS99 KSGF 240707
HRRSGF

HOURLY WEATHER
NATIONAL WEATHER SERVICE SPRINGFIELD MO
200 AM CDT WED MAY 24 2017

......SGF CWA......

CITY           SKY/WX    TMP DP  RH WIND       PRES   REMARKS
SPRINGFIELD    CLOUDY    55  49  80 NW7       29.73F
JOPLIN         CLOUDY    55  51  86 NW7       29.77F
WEST PLAINS    PTCLDY    52  49  89 W3        29.70F
ROLLA          CLEAR     50  48  93 NW3       29.68F
OSAGE BEACH    CLOUDY    54  48  80 CALM      29.72F
BRANSON        CLOUDY    54  48  82 NW6       29.73F

......SURROUNDING SGF CWA......

CITY           SKY/WX    TMP DP  RH WIND       PRES   REMARKS
CHANUTE        CLOUDY    54  47  77 NW8       29.80F
PARSONS        CLOUDY    53  49  86 NW6       29.81F
COFFEYVILLE    CLOUDY    55  49  80 NW9       29.80F
EMPORIA        PTCLDY    49  45  86 NW7       29.82F
GROVE OK       CLOUDY    55  50  82 NW5       29.79F
ROGERS AR      CLEAR     51  47  86 NW8       29.76F
SILOAM SPRINGS CLEAR     50  43  76 NW5       29.77F
HARRISON AR    PTCLDY    53  49  86 W7        29.73F
NEAR YELLVILLE CLEAR     55  48  76 NW3       29.68F

......KANSAS AND MISSOURI......

CITY           SKY/WX    TMP DP  RH WIND       PRES   REMARKS
KANSAS CTY INT PTCLDY    49  46  90 NW7       29.76F
DOWNTOWN KC    MOCLDY    52  48  86 W3        29.76F
COLUMBIA       CLOUDY    53  48  83 NW7       29.70F
SEDALIA        CLOUDY    55  51  86 NW6       29.73F
ST JOSEPH      CLEAR     49  47  93 NW7       29.77F
ST LOUIS       MOCLDY    58  52  80 NW5       29.66F
SPIRIT OF STL  PTCLDY    52  52 100 CALM      29.66F
KIRKSVILLE     CLEAR     46  44  93 W6        29.70F
WICHITA        PTCLDY    51  44  77 NW10      29.86F
TOPEKA         CLEAR     50  47  89 W6        29.79F
OLATHE         PTCLDY    49  48  97 NW3       29.76F

......TENNESSEE......

CITY           SKY/WX    TMP DP  RH WIND       PRES   REMARKS
MEMPHIS        LGT RAIN  61  60  97 NW8       29.63F
NASHVILLE      CLOUDY    66  60  81 CALM      29.60F

......ARKANSAS.......

CITY           SKY/WX    TMP DP  RH WIND       PRES   REMARKS
FAYETTEVILLE   CLEAR     51  48  89 W5        29.76F
FT SMITH       CLEAR     58  48  69 W12       29.77S
LITTLE ROCK    CLOUDY    60  60 100 SW6       29.71F

......OKLAHOMA.......

CITY           SKY/WX    TMP DP  RH WIND       PRES   REMARKS
TULSA          PTCLDY    54  47  77 NW9       29.81F
PONCA CITY     PTCLDY    50  44  80 NW3       29.86F
MCALESTER      PTCLDY    57  48  72 NW6       29.83F
OKLAHOMA CITY  CLOUDY    55  47  74 NW8       29.88F

......IOWA............

CITY           SKY/WX    TMP DP  RH WIND       PRES   REMARKS
DES MOINES     LGT RAIN  51  49  92 NW6       29.70F FOG
QUAD CITIES    PTCLDY    50  47  89 CALM      29.65F

......ILLINOIS........

CITY           SKY/WX    TMP DP  RH WIND       PRES   REMARKS
QUINCY         PTCLDY    51  48  89 W5        29.67F
CHICAGO        CLOUDY    55  52  89 E7        29.64F




USA.gov is the U.S. government's official web portal to all federal, state and local government web resources and services.